Weather Service Report


917 
ASUS46 KSTO 291009
RWRCA 

NORTHERN AND CENTRAL CA REGIONAL WEATHER ROUNDUP
NATIONAL WEATHER SERVICE SACRAMENTO CA 
300 AM PDT FRI MAY 29 2015

NOTE: FAIR INDICATES FEW OR NO CLOUDS BELOW 12,000 FEET WITH NO
SIGNIFICANT WEATHER AND/OR OBSTRUCTIONS TO VISIBILITY.

CAZ001-003-291100-
NORTHWEST AREA
  
CITY           SKY/WX    TMP DP  RH WIND       PRES   REMARKS
CRESCENT CITY  CLOUDY    50  50 100 S9        30.05S                  
ARCATA         NOT AVBL                                               
SHELTER COVE   NOT AVBL                                               
UKIAH          CLEAR     53  44  71 CALM      29.95F                  
$$

CAZ006-505>513-291100-
BAY AREA
  
CITY           SKY/WX    TMP DP  RH WIND       PRES   REMARKS
SANTA ROSA     CLOUDY    50  49  96 CALM      29.97S FOG              
SAN RAFAEL     N/A       52  MM  MM MISG
NAPA           CLOUDY    51  49  92 W9        29.98S                  
CONCORD        CLEAR     53  49  86 S12       29.97R                  
OAKLAND CITY   N/A       54  MM  MM MISG
OAKLAND        CLOUDY    53  49  86 W14       30.01S                  
SAN FRAN CITY  N/A       51  MM  98 MISG
SAN FRAN ARPT  CLOUDY    54  50  86 W14       30.01S                  
LIVERMORE      CLOUDY    55  50  83 NW9       29.99R                  
HAYWARD        CLOUDY    54  50  86 W10       30.01R                  
REDWOOD CITY   N/A       MM  MM  MM MISG
MOFFETT ARPT   CLOUDY    55  51  86 N6        30.01S                  
SAN JOSE ARPT  CLOUDY    55  51  86 NW5       30.00S                  
$$
CAZ034-037-514>518-291100-
CENTRAL COAST
  
CITY           SKY/WX    TMP DP  RH WIND       PRES   REMARKS
WATSONVILLE    CLOUDY    52  51  97 CALM      30.00S FOG              
SALINAS        CLOUDY    53  51  93 SW7       29.99F                  
MONTEREY       CLOUDY    53  51  93 W6        30.00S FOG              
PT PIEDRAS BLS NOT AVBL                                               
SAN LUIS OBISP CLOUDY    53  50  89 SW6       29.96F                  
SANTA MARIA    CLOUDY    53  52  96 W5        29.97S FOG              
$$
CAZ015-016-291100-
NORTHERN SACRAMENTO VALLEY
  
CITY           SKY/WX    TMP DP  RH WIND       PRES   REMARKS
REDDING        CLEAR     67  54  63 NW5       29.91S                  
RED BLUFF      CLEAR     63  57  81 NW6       29.92R                  
OROVILLE       CLEAR     66  55  67 S7        29.92S                  
$$
CAZ016>018-291100-
SOUTHERN SACRAMENTO VALLEY
  
CITY           SKY/WX    TMP DP  RH WIND       PRES   REMARKS
AUBURN         CLEAR     64  50  59 E5        29.95S                  
BEALE AFB      CLEAR     60  53  78 SE6       29.89F                  
LINCOLN        FAIR      59  50  72 SE6       29.91S                  
MARYSVILLE     CLEAR     60  53  77 SE5       29.90F                  
SAC INTL ARPT  PTCLDY    56  50  80 S9        29.90S                  
MATHER AIRPORT CLEAR     54  50  87 S5        29.92                   
DOWNTOWN SAC   N/A       56  MM  MM MISG
SAC EXEC ARPT  CLEAR     56  50  80 S7        29.92S                  
VACAVILLE      CLEAR     56  49  77 SW8       29.91S                  
TRAVIS AFB     CLEAR     53  51  93 SW25      29.89S                  
$$
CAZ019>021-291100-
SAN JOAQUIN VALLEY
  
CITY           SKY/WX    TMP DP  RH WIND       PRES   REMARKS
STOCKTON       CLEAR     56  48  74 W6        29.92S                  
MODESTO        CLEAR     60  50  69 NW5       29.91S                  
MERCED         CLEAR     61  51  70 W5        29.90F                  
LEMOORE        CLEAR     63  45  51 NW9       29.91F                  
FRESNO         PTCLDY    66  53  63 NW6       29.90F                  
HANFORD        CLEAR     66  52  60 NW9       29.90S                  
PORTERVILLE    CLEAR     63  50  63 CALM      29.91S                  
BAKERSFIELD    CLEAR     68  47  46 NW5       29.91S                  
$$
CAZ011-012-071-291100-
NORTHERN MOUNTAINS
  
CITY           SKY/WX    TMP DP  RH WIND       PRES   REMARKS
YREKA          CLEAR     56  46  69 CALM      30.02S                  
MOUNT SHASTA   CLEAR     52  45  77 CALM      30.06S                  
ALTURAS        PTCLDY    49  43  80 CALM      30.10S                  
$$
CAZ011-012-071-291100-
SIERRA NEVADA MTNS
  
CITY           SKY/WX    TMP DP  RH WIND       PRES   REMARKS
BLUE CANYON    CLEAR     61  32  33 CALM      30.14S                  
TRUCKEE        CLEAR     39  36  87 CALM      30.19S                  
TAHOE VLY ARPT CLEAR     44  37  76 CALM      30.18F                  
MAMMOTH LAKES  FAIR      46  30  53 W7        30.23S                  
$$
  

Return to Home page


Western Regional Climate Center, wrcc@dri.edu